Hourly Weather Roundup
Issued by NWS Central Illinois

Home | Current Version | Previous Version | Text Only | Print | Product List | Glossary On
Versions: 1 2 3 4 5 6 7 8 9 10 11 12 13 14 15 16 17 18 19 20 21 22 23 24 25 26 27 28 29 30 31 32 33 34 35 36 37 38 39 40 41 42 43 44 45 46 47 48 49 50
000
NZUS43 KILX 201610
HWRILX

AREA WEATHER ROUNDUP
NATIONAL WEATHER SERVICE, LINCOLN IL
1000 AM CST SAT DEC 20 2014


CITY           SKY/WX    TMP DP  RH WIND       PRES   REMARKS
BLOOMINGTON    PTSUNNY   30  28  92 S6        30.29R WCI  24
CHAMPAIGN      CLOUDY    31  27  85 S9        30.31R WCI  23
DECATUR        CLOUDY    32  28  85 SE6       30.30R WCI  26
FLORA          SUNNY     32  28  84 SE5       30.33S WCI  27
GALESBURG      CLOUDY    31  27  84 SE5       30.26R WCI  26
JACKSONVILLE   CLOUDY    37  30  76 SE6       30.27S WCI  32
LACON          CLOUDY    30  26  84 SE5       30.28R FOG     WCI  25
LAWRENCEVILLE  CLOUDY    32  27  81 CALM      30.34R
LITCHFIELD     CLOUDY    33  28  81 S7        30.29R WCI  27
$$


CITY           SKY/WX    TMP DP  RH WIND       PRES   REMARKS
LINCOLN        CLOUDY    33  29  87 SE7       30.30S WCI  27
MACOMB         CLOUDY    32  29  89 SE7       30.28S FOG     WCI  26
MATTOON        CLOUDY    31  26  82 SE6       30.30R WCI  25
MT CARMEL AP   CLOUDY    34  28  80 CALM      30.34R
OLNEY-NOBLE AP CLOUDY    32  28  86 CALM      30.34R
PARIS          CLOUDY    32  28  86 S3        30.32S
PEORIA         CLOUDY    32  26  78 SE5       30.28R HAZE    WCI  27
PONTIAC        CLOUDY    32  29  87 S5        30.31R WCI  27
RANTOUL        CLOUDY    33  29  86 S7        30.30S WCI  26
ROBINSON       CLOUDY    32  29  88 CALM      30.35R
SPRINGFIELD    CLOUDY    35  27  72 S6        30.29S WCI  30
TAYLORVILLE    CLOUDY    32  28  86 S7        30.30R WCI  26
$$

...REGIONAL REPORTS...


CITY           SKY/WX    TMP DP  RH WIND       PRES   REMARKS
CHICAGO O`HARE CLOUDY    31  23  72 S6        30.28R WCI  25
KANKAKEE       CLOUDY    31  27  84 S5        30.31S WCI  27
MOLINE         CLOUDY    32  25  75 SE6       30.26R HAZE    WCI  26
MOUNT VERNON   CLOUDY    34  27  75 E5        30.32S WCI  30
PITTSFIELD     CLOUDY    35  31  85 S6        30.27S FOG     WCI  30
QUINCY         CLOUDY    35  30  82 S9        30.25R HAZE    WCI  28
ROCKFORD       CLOUDY    28  24  85 SE5       30.29R FOG     WCI  23
$$


CITY           SKY/WX    TMP DP  RH WIND       PRES   REMARKS
BURLINGTON     CLOUDY    33  28  81 S7        30.24R HAZE    WCI  27
CEDAR RAPIDS   CLOUDY    30  29  96 SE7       30.21S FOG     WCI  23
DES MOINES     CLOUDY    33  29  85 SE6       30.18S FOG     WCI  28
KIRKSVILLE     FOG       35  35 100 S8        30.22R VSB<1/4 WCI  29
OTTUMWA        CLOUDY    32  30  92 S7        30.20S FOG     WCI  26
ST LOUIS       CLOUDY    38  30  73 S7        30.29S HAZE    WCI  33
$$


CITY           SKY/WX    TMP DP  RH WIND       PRES   REMARKS
TERRE HAUTE    CLOUDY    32  25  75 SE3       30.32R
EVANSVILLE     CLOUDY    34  25  69 N3        30.33R
INDIANAPOLIS   CLOUDY    30  23  75 CALM      30.30R
LAFAYETTE      CLOUDY    30  27  88 CALM      30.32R FOG
MADISON        FLURRIES  28  24  85 S6        30.25S WCI  22
MILWAUKEE      CLOUDY    29  19  66 VRB3      30.27F
$$




USA.gov is the U.S. government's official web portal to all federal, state and local government web resources and services.